Location: Campillo
(40.8621°N, 4.2488°W)
Time: 11:45:14
(UTC+00:00)

Resurs 01 Rocket - Pass Details

Date: 11 May 2021
Orbit: 633 x 645 km, 97.9° (Epoch: 13 June)

Event Time Altitude Azimuth Distance (km) Brightness Sun altitude
Exits shadow 20:02:14 - 125° (SE) 2,129 3.6 -7.2°
Reaches altitude 10° 20:02:30 10° 123° (ESE) 2,037 3.5 -7.3°
Maximum altitude 20:06:08 25° 68° (ENE) 1,289 2.9 -7.8°
Drops below altitude 10° 20:09:47 10° 13° (NNE) 2,044 4.5 -8.4°
Sets 20:12:17 0° 0° (N) 2,957 5.5 -8.8°
